This is the latest recevied weather packets stored in our database for station/object JG6YPS-13. If no packets are shown the sender has not sent any weather packets the latest 10 day(s).
| Time | Temp. | Humidity | Pressure | Rain* | Wind** | Luminosity | Snow |
|---|---|---|---|---|---|---|---|
| 1777602691 | 18.89° C | 50% | 1010.7 hPa | 0 mm | - | - | - |
| 1777602091 | 18.89° C | 49% | 1010.7 hPa | 0 mm | - | - | - |
| 1777601491 | 20.56° C | 49% | 1010.7 hPa | 0 mm | - | - | - |
| 1777600892 | 20° C | 48% | 1010.9 hPa | 0 mm | - | - | - |
| 1777600292 | 18.33° C | 48% | 1010.9 hPa | 0 mm | - | - | - |
| 1777599693 | 19.44° C | 47% | 1010.9 hPa | 0 mm | - | - | - |
| 1777599093 | 19.44° C | 49% | 1011 hPa | 0 mm | - | - | - |
| 1777598493 | 19.44° C | 52% | 1011.2 hPa | 0 mm | - | - | - |
| 1777597893 | 18.33° C | 49% | 1011.2 hPa | 0 mm | - | - | - |
| 1777597294 | 18.33° C | 51% | 1011.2 hPa | 0 mm | - | - | - |
| 1777596694 | 18.33° C | 50% | 1011.3 hPa | 0 mm | - | - | - |
| 1777596094 | 18.33° C | 56% | 1011.3 hPa | 0 mm | - | - | - |
| 1777595494 | 18.33° C | 59% | 1011.4 hPa | 0 mm | - | - | - |
| 1777594895 | 18.89° C | 58% | 1011.3 hPa | 0 mm | - | - | - |
| 1777594295 | 17.78° C | 68% | 1011.3 hPa | 0 mm | - | - | - |
| 1777593696 | 16.11° C | 66% | 1011.2 hPa | 0 mm | - | - | - |
| 1777593096 | 17.22° C | 71% | 1011.2 hPa | 0 mm | - | - | - |
| 1777592496 | 16.11° C | 71% | 1011.1 hPa | 0.25 mm | - | - | - |
| 1777591897 | 16.11° C | 74% | 1010.9 hPa | 0.25 mm | - | - | - |
| 1777591297 | 16.11° C | 77% | 1010.8 hPa | 0.25 mm | - | - | - |
| 1777590698 | 16.67° C | 78% | 1010.6 hPa | 0.25 mm | - | - | - |
| 1777590098 | 16.11° C | 79% | 1010.4 hPa | 0.25 mm | - | - | - |
| 1777589498 | 16.11° C | 80% | 1010.3 hPa | 0.25 mm | - | - | - |
| 1777588899 | 15° C | 84% | 1010.2 hPa | 0 mm | - | - | - |
| 1777588300 | 14.44° C | 84% | 1010.2 hPa | 0 mm | - | - | - |
* Rain latest hour (hover to see other rain measurements)
** Current wind speed in m/s (hover to see current wind gust speed)